(193114) = 2002 TR80 = 2000 GE166

Discovered at Socorro on 2000-04-05 by LINEAR.

Orbit

Orbit type: Main Belt

Note: WebGL enabled browser required.

epoch2023-09-13.0
epoch JD2460200.5
perihelion date2018-07-17.10808
perihelion JD2458316.60808
argument of perihelion (°)122.23655
ascending node (°)204.75023
inclination (°)14.68231
eccentricity0.0341354
perihelion distance (AU)3.0028897
Tisserand w.r.t. Jupiter3.2
ΔV w.r.t. Earth (km/sec)11.7
semimajor axis (AU)3.1090171
mean anomaly (°)338.70778
mean daily motion (°/day)0.17979150
aphelion distance (AU)3.215
period (years)5.48
P-vector [x]0.82698120
P-vector [y]-0.56213981
P-vector [z]-0.01004601
Q-vector [x]0.55212488
Q-vector [y]0.80861619
Q-vector [z]0.20321904
absolute magnitude15.36
phase slope0.15
uncertainty0
referenceMPO 778303
observations used445
oppositions16
arc length (days)9385
first opposition used1996
last opposition used2022
residual rms (arc-secs)0.69
perturbers coarse indicatorM-v
perturbers precise indicator003Ek
first observation date used1996-09-14.0
last observation date used2022-05-26.0
computer nameMPCLINUX
JD of orbit computation2456671.019422
perihelion JD uncertainty (days)7.5438E-04
argument of perihelion uncertainty (°)1.4050E-04
ascending node uncertainty (°)2.0460E-05
inclination uncertainty (°)8.2630E-06
eccentricity uncertainty 5.0485E-08
perihelion distance uncertainty (AU)1.5611E-07
Minimum Orbit Intersection Distances (in AU)
for orbit epoch: 2460200.5, reference: E2023-VB5
Mercury2.60471
Venus2.30349
Earth2.02015
Mars1.55135
Jupiter1.90083
Saturn5.99352
Uranus15.2914
Neptune26.7721

Observations

456 total observations over interval: 1996 09 14.16565 – 2022 05 26.349944
These data are available for download (format description).

Date (UT) J2000 RA J2000 Dec Magn Location Ref
1996 09 14.16565 21 46 57.76 +03 38 17.6 20.2 V 691 – Steward Observatory, Kitt Peak-Spacewatch MPS 120339
1996 09 14.18668 21 46 56.97 +03 38 07.9   691 – Steward Observatory, Kitt Peak-Spacewatch MPS 120339
1996 09 15.14933 21 46 29.34 +03 30 01.3   691 – Steward Observatory, Kitt Peak-Spacewatch MPS 120339
1996 09 15.17169 21 46 28.66 +03 29 49.9 19.9 V 691 – Steward Observatory, Kitt Peak-Spacewatch MPS 120339
1996 09 15.19267 21 46 28.04 +03 29 39.5   691 – Steward Observatory, Kitt Peak-Spacewatch MPS 120339
2000 04 05.35229 13 42 11.40 -11 02 30.6 18.9   704 – Lincoln Laboratory ETS, New Mexico MPS 14468
2000 04 05.36685 13 42 10.89 -11 02 23.3 19.4   704 – Lincoln Laboratory ETS, New Mexico MPS 14468
2000 04 05.38132 13 42 10.18 -11 02 16.5 19.5   704 – Lincoln Laboratory ETS, New Mexico MPS 14468
2000 04 05.41041 13 42 08.90 -11 02 03.0 19.3   704 – Lincoln Laboratory ETS, New Mexico MPS 14468
2000 04 06.34177 13 41 32.22 -10 54 44.1 19.4   704 – Lincoln Laboratory ETS, New Mexico MPS 14468
2000 04 06.35582 13 41 31.56 -10 54 37.5 19.6   704 – Lincoln Laboratory ETS, New Mexico MPS 14468
2000 04 06.39810 13 41 29.86 -10 54 17.6 20.3   704 – Lincoln Laboratory ETS, New Mexico MPS 14468
2000 04 29.23639 13 26 04.92 -07 50 15.0 19.8   704 – Lincoln Laboratory ETS, New Mexico MPS 14468
2000 04 29.24856 13 26 04.46 -07 50 08.1 19.5   704 – Lincoln Laboratory ETS, New Mexico MPS 14468
2000 04 29.27289 13 26 03.54 -07 49 57.8 19.7   704 – Lincoln Laboratory ETS, New Mexico MPS 14468
2000 05 01.15280 13 24 54.66 -07 35 34.9 20.2 V 691 – Steward Observatory, Kitt Peak-Spacewatch MPS 1100124
2000 05 01.17350 13 24 53.90 -07 35 25.5 20.5 V 691 – Steward Observatory, Kitt Peak-Spacewatch MPS 1100124
2000 05 01.19440 13 24 53.13 -07 35 16.0 20.2 V 691 – Steward Observatory, Kitt Peak-Spacewatch MPS 1100124
2000 05 02.22765 13 24 16.10 -07 27 29.5 19.9 V 691 – Steward Observatory, Kitt Peak-Spacewatch MPS 1100124
2000 05 02.24932 13 24 15.33 -07 27 20.3 20.3 V 691 – Steward Observatory, Kitt Peak-Spacewatch MPS 1100124
2000 05 02.27135 13 24 14.50 -07 27 10.5 20.4 V 691 – Steward Observatory, Kitt Peak-Spacewatch MPS 1100124
2002 10 01.33240 01 07 47.02 +10 59 34.1 19.5 R 699 – Lowell Observatory-LONEOS MPS 63989
2002 10 01.35438 01 07 46.10 +10 59 22.8   699 – Lowell Observatory-LONEOS MPS 63989
2002 10 01.37637 01 07 45.14 +10 59 12.1   699 – Lowell Observatory-LONEOS MPS 63989
2002 10 01.39834 01 07 44.24 +10 59 01.0   699 – Lowell Observatory-LONEOS MPS 63989
2002 10 04.26079 01 05 49.12 +10 35 05.3 19.3   704 – Lincoln Laboratory ETS, New Mexico MPS 63989
2002 10 04.27655 01 05 48.43 +10 34 56.8 19.7   704 – Lincoln Laboratory ETS, New Mexico MPS 63989
2002 10 04.29216 01 05 47.81 +10 34 49.2 19.7   704 – Lincoln Laboratory ETS, New Mexico MPS 63989
2002 10 04.30786 01 05 47.05 +10 34 41.2 20.0   704 – Lincoln Laboratory ETS, New Mexico MPS 63989
2002 10 04.32354 01 05 46.49 +10 34 34.0 20.0   704 – Lincoln Laboratory ETS, New Mexico MPS 63989
2002 10 04.36603 01 05 44.70 +10 34 11.2 19.8   644 – Palomar Mountain/NEAT MPS 83017
2002 10 04.37892 01 05 44.22 +10 34 04.5 19.7   644 – Palomar Mountain/NEAT MPS 83017
2002 10 04.39322 01 05 43.58 +10 33 57.7 19.3   644 – Palomar Mountain/NEAT MPS 83017
2002 10 09.25779 01 02 23.72 +09 51 58.9 19.3   704 – Lincoln Laboratory ETS, New Mexico MPS 63989
2002 10 09.27345 01 02 23.03 +09 51 51.5 20.0   704 – Lincoln Laboratory ETS, New Mexico MPS 63989
2002 10 09.28894 01 02 22.37 +09 51 43.1 19.2   704 – Lincoln Laboratory ETS, New Mexico MPS 63989
2002 10 09.30450 01 02 21.73 +09 51 36.2 19.6   704 – Lincoln Laboratory ETS, New Mexico MPS 63989
2002 10 09.32027 01 02 21.00 +09 51 26.6 19.8   704 – Lincoln Laboratory ETS, New Mexico MPS 63989
2002 10 11.26407 01 01 00.92 +09 34 23.1 19.7   704 – Lincoln Laboratory ETS, New Mexico MPS 63989
2002 10 11.27982 01 01 00.30 +09 34 14.9 19.8   704 – Lincoln Laboratory ETS, New Mexico MPS 63989
2002 10 11.29551 01 00 59.55 +09 34 06.8 19.7   704 – Lincoln Laboratory ETS, New Mexico MPS 63989
2002 10 11.31134 01 00 58.90 +09 33 58.0 19.8   704 – Lincoln Laboratory ETS, New Mexico MPS 63989
2005 03 13.23626 11 02 43.39 -07 03 11.1 19.2   703 – Catalina Sky Survey MPS 128910
2005 03 13.24272 11 02 43.06 -07 03 09.1 19.6   703 – Catalina Sky Survey MPS 128910
2005 03 13.24917 11 02 42.85 -07 03 05.8 19.2   703 – Catalina Sky Survey MPS 128910
2005 03 13.25561 11 02 42.58 -07 03 02.6 19.6   703 – Catalina Sky Survey MPS 128910
2006 05 31.31210 16 25 08.28 -06 43 03.9 20.0 V 691 – Steward Observatory, Kitt Peak-Spacewatch MPS 172711
2006 05 31.32945 16 25 07.49 -06 42 58.9 19.8 V 691 – Steward Observatory, Kitt Peak-Spacewatch MPS 172711
2006 05 31.34678 16 25 06.63 -06 42 54.0 19.9 V 691 – Steward Observatory, Kitt Peak-Spacewatch MPS 172711
2006 06 04.30102 16 22 06.96 -06 25 11.6   691 – Steward Observatory, Kitt Peak-Spacewatch MPS 173552
2006 06 04.31832 16 22 06.14 -06 25 07.2   691 – Steward Observatory, Kitt Peak-Spacewatch MPS 173552
2006 06 04.33563 16 22 05.35 -06 25 02.9   691 – Steward Observatory, Kitt Peak-Spacewatch MPS 173552
2008 10 10.03552 04 14 41.91 +12 37 01.0 20.3 V A50 – Andrushivka Astronomical Observatory MPS 260212
2008 10 10.03711 04 14 41.88 +12 37 01.0 19.7 V A50 – Andrushivka Astronomical Observatory MPS 260212
2008 10 10.03868 04 14 41.90 +12 37 00.7 20.8 V A50 – Andrushivka Astronomical Observatory MPS 260212
2008 10 10.07978 04 14 41.33 +12 36 45.3 19.8 V A50 – Andrushivka Astronomical Observatory MPS 260212
2008 11 03.32431 04 03 37.04 +09 57 49.7 19.5 V G96 – Mt. Lemmon Survey MPS 262994
2008 11 03.33291 04 03 36.68 +09 57 46.5 19.6 V G96 – Mt. Lemmon Survey MPS 262994
2008 11 03.34132 04 03 36.32 +09 57 42.9 19.6 V G96 – Mt. Lemmon Survey MPS 262994
2008 11 03.34980 04 03 35.96 +09 57 39.4 19.5 V G96 – Mt. Lemmon Survey MPS 262994
2008 11 08.34481 04 00 05.79 +09 24 22.4 19.7 V G96 – Mt. Lemmon Survey MPS 264518
2008 11 08.35133 04 00 05.50 +09 24 19.6 19.6 V G96 – Mt. Lemmon Survey MPS 264518
2008 11 08.35792 04 00 05.18 +09 24 17.1 19.6 V G96 – Mt. Lemmon Survey MPS 264518
2008 11 08.36444 04 00 04.89 +09 24 14.6 19.6 V G96 – Mt. Lemmon Survey MPS 264518
2008 11 19.31376 03 51 42.15 +08 15 35.8 19.9 V 703 – Catalina Sky Survey MPS 266269
2008 11 19.32324 03 51 41.68 +08 15 33.5 19.7 V 703 – Catalina Sky Survey MPS 266269
2008 11 19.33289 03 51 41.25 +08 15 29.1 19.8 V 703 – Catalina Sky Survey MPS 266269
2008 11 19.34245 03 51 40.71 +08 15 26.4 19.1 V 703 – Catalina Sky Survey MPS 266269
2008 12 01.29426 03 42 27.72 +07 12 43.4 19.3 V 703 – Catalina Sky Survey MPS 268700
2008 12 01.30216 03 42 27.36 +07 12 41.5 19.8 V 703 – Catalina Sky Survey MPS 268700
2008 12 01.30994 03 42 27.03 +07 12 39.6 19.2 V 703 – Catalina Sky Survey MPS 268700
2008 12 01.31781 03 42 26.60 +07 12 37.0 19.5 V 703 – Catalina Sky Survey MPS 268700
2011 03 28.28416 13 59 46.68 -12 24 02.1 20.6 V 691 – Steward Observatory, Kitt Peak-Spacewatch MPS 376900
2011 03 28.30194 13 59 46.07 -12 23 55.1 20.1 V 691 – Steward Observatory, Kitt Peak-Spacewatch MPS 376900
2011 03 28.31971 13 59 45.50 -12 23 47.5 20.2 V 691 – Steward Observatory, Kitt Peak-Spacewatch MPS 376900
2011 04 01.29436 13 57 32.45 -11 55 48.6 20.1 V 691 – Steward Observatory, Kitt Peak-Spacewatch MPS 376900
2011 04 01.31213 13 57 31.83 -11 55 40.1 19.8 V 691 – Steward Observatory, Kitt Peak-Spacewatch MPS 376900
2011 04 01.32990 13 57 31.16 -11 55 33.3 20.0 V 691 – Steward Observatory, Kitt Peak-Spacewatch MPS 376900
2011 04 05.30222 13 55 06.18 -11 26 04.9 20.1 V 691 – Steward Observatory, Kitt Peak-Spacewatch MPS 378398
2011 04 05.31999 13 55 05.50 -11 25 56.7 19.9 V 691 – Steward Observatory, Kitt Peak-Spacewatch MPS 378398
2011 04 05.33773 13 55 04.79 -11 25 48.6 20.0 V 691 – Steward Observatory, Kitt Peak-Spacewatch MPS 378398
2011 04 11.31159 13 51 09.94 -10 39 16.7 19.2   704 – Lincoln Laboratory ETS, New Mexico MPS 379527
2011 04 11.32351 13 51 09.41 -10 39 12.2 19.3   704 – Lincoln Laboratory ETS, New Mexico MPS 379527
2011 04 11.34736 13 51 08.48 -10 39 03.0 19.7   704 – Lincoln Laboratory ETS, New Mexico MPS 379527
